Weather History for Dutch Harbor, AK

Change the Weather History Date:

Wednesday, February 12, 2014

  Actual Average Record
Temperature  
Mean Temperature 32 °F -  
Max Temperature 33 °F 38 °F 59 °F (1997)
Min Temperature 30 °F 29 °F 20 °F (1952)
Degree Days  
Heating Degree Days 34    
Moisture  
Dew Point 27 °F    
Average Humidity 83    
Maximum Humidity 93    
Minimum Humidity 69    
Precipitation  
Precipitation 0.05 in - - ()
Sea Level Pressure  
Sea Level Pressure 29.84 in    
Wind  
Wind Speed 16 mph (NW)    
Max Wind Speed 23 mph    
Max Gust Speed 32 mph    
Visibility 5 miles    
Events Snow    
Averages and records for this station are not official NWS values.
T = Trace of Precipitation, MM = Missing Value Source: NWS Daily Summary

Daily Weather History Graph

Daily Weather History Graph

Search for Another Location

Airport:

Trip Planner

Search our weather history database for the weather conditions in past years. The results will help you decide how hot, cold, wet, or windy it might be!

Date:

Astronomy

Feb. 12, 2014 Rise Set
Actual Time 9:31 AM AKST 7:10 PM AKST
Civil Twilight 8:54 AM AKST 7:47 PM AKST
Nautical Twilight 8:12 AM AKST 8:28 PM AKST
Astronomical Twilight 7:32 AM AKST 9:09 PM AKST
Moon 5:30 PM AKST (2/12) 8:03 AM AKST (2/12)
Length of Visible Light 10h 52m
Length of Day
9h 38m
Waxing Gibbous, 96% of the Moon is Illuminated
Feb 12
Waxing Gibbous
Feb 14
Full
Feb 22
Last Quarter
Feb 28
New
Mar 8
First Quarter

Hourly Weather History & Observations

Time (AKST) Temp. Windchill Dew Point Humidity Pressure Visibility Wind Dir Wind Speed Gust Speed Precip Events Conditions
12:56 AM 32.0 °F 19.5 °F 25.0 °F 75% 30.12 in 10.0 mi North 21.9 mph 31.1 mph 0.00 in   Overcast
1:56 AM 30.9 °F 17.8 °F 21.9 °F 69% 30.12 in 10.0 mi NNW 23.0 mph 28.8 mph 0.00 in   Overcast
2:56 AM 30.9 °F 17.8 °F 23.0 °F 72% 30.12 in 10.0 mi NNW 23.0 mph 29.9 mph N/A   Overcast
3:56 AM 30.9 °F 17.8 °F 23.0 °F 72% 30.11 in 10.0 mi North 23.0 mph 32.2 mph N/A   Overcast
4:56 AM 30.9 °F 18.7 °F 23.0 °F 72% 30.10 in 10.0 mi NNW 19.6 mph - N/A   Overcast
5:56 AM 30.9 °F 18.7 °F 23.0 °F 72% 30.09 in 10.0 mi NNW 19.6 mph 25.3 mph 0.00 in   Overcast
6:13 AM 30.2 °F 18.5 °F 24.8 °F 80% 30.07 in 10.0 mi NW 17.3 mph - 0.00 in Snow Light Snow
6:56 AM 30.9 °F 20.7 °F 23.0 °F 72% 30.09 in 10.0 mi NNW 13.8 mph - 0.00 in   Overcast
7:56 AM 30.9 °F 18.7 °F 25.0 °F 79% 30.07 in 6.0 mi NW 19.6 mph - 0.00 in Snow Light Snow
8:56 AM 30.9 °F 18.4 °F 25.0 °F 79% 30.06 in 6.0 mi NW 20.7 mph 29.9 mph 0.00 in Snow Light Snow
10:06 AM 30.2 °F 18.5 °F 26.6 °F 86% 30.03 in 6.0 mi NW 17.3 mph - 0.00 in Snow Light Snow
10:16 AM 30.2 °F 20.2 °F 26.6 °F 86% 30.03 in 5.0 mi NNW 12.7 mph - 0.00 in Snow Light Snow
10:25 AM 30.2 °F 18.1 °F 26.6 °F 86% 30.03 in 5.0 mi NW 18.4 mph 24.2 mph 0.00 in Snow Light Snow
10:56 AM 32.0 °F 20.5 °F 26.1 °F 79% 30.04 in 5.0 mi NW 18.4 mph - 0.00 in Snow Light Snow
11:13 AM 32.0 °F 20.8 °F 26.6 °F 80% 30.01 in 6.0 mi NW 17.3 mph - 0.00 in Snow Light Snow
11:18 AM 32.0 °F 19.5 °F 26.6 °F 80% 30.01 in 5.0 mi WNW 21.9 mph - 0.00 in Snow Light Snow
11:50 AM 32.0 °F 21.2 °F 24.8 °F 75% 30.00 in 8.0 mi NW 16.1 mph - 0.00 in Snow Light Snow
11:56 AM 32.0 °F 20.5 °F 25.0 °F 75% 30.01 in 8.0 mi NW 18.4 mph 25.3 mph 0.00 in Snow Light Snow
12:29 PM 33.8 °F 22.5 °F 24.8 °F 70% 29.98 in 9.0 mi NW 19.6 mph - 0.00 in Snow Light Snow
12:30 PM 33.8 °F 22.5 °F 24.8 °F 70% 29.98 in 8.0 mi NW 19.6 mph - 0.00 in Snow Light Snow
12:56 PM 33.1 °F 23.9 °F 26.1 °F 75% 29.98 in 8.0 mi West 12.7 mph - 0.00 in Snow Light Snow
12:57 PM 33.8 °F 24.3 °F 26.6 °F 75% 29.96 in 8.0 mi West 13.8 mph - 0.00 in Snow Light Snow
1:21 PM 32.0 °F 23.6 °F 28.4 °F 87% 29.95 in 4.0 mi WNW 10.4 mph - 0.00 in Snow Light Snow
1:47 PM 32.0 °F 22.5 °F 26.6 °F 80% 29.93 in 4.0 mi WNW 12.7 mph - 0.00 in Snow Light Snow
1:50 PM 32.0 °F 22.5 °F 26.6 °F 80% 29.93 in 6.0 mi WNW 12.7 mph - 0.00 in Snow Light Snow
1:56 PM 32.0 °F 23.6 °F 27.0 °F 82% 29.94 in 6.0 mi WNW 10.4 mph - 0.00 in Snow Light Snow
2:15 PM 32.0 °F 24.2 °F 26.6 °F 80% 29.91 in 5.0 mi NW 9.2 mph - 0.00 in Snow Light Snow
2:29 PM 32.0 °F 26.4 °F 26.6 °F 80% 29.90 in 4.0 mi WNW 5.8 mph - 0.00 in Snow Light Snow
2:56 PM 32.0 °F 27.5 °F 27.0 °F 82% 29.89 in 4.0 mi WNW 4.6 mph - 0.00 in Snow Light Snow
3:30 PM 33.8 °F 27.0 °F 28.4 °F 81% 29.84 in 3.0 mi SW 8.1 mph - 0.00 in Snow Light Snow
3:32 PM 33.8 °F 26.4 °F 28.4 °F 81% 29.84 in 3.0 mi SW 9.2 mph - 0.00 in Snow Light Snow
3:33 PM 32.0 °F 23.6 °F 28.4 °F 87% 29.84 in 3.0 mi WSW 10.4 mph - 0.00 in Snow Light Snow
3:56 PM 32.0 °F 24.8 °F 28.0 °F 85% 29.84 in 3.0 mi SW 8.1 mph - 0.00 in Snow Light Snow
4:08 PM 30.2 °F 24.3 °F 28.4 °F 93% 29.81 in 2.0 mi West 5.8 mph - 0.00 in Snow Light Snow
4:43 PM 33.8 °F 24.3 °F 30.2 °F 87% 29.79 in 3.0 mi West 13.8 mph - 0.00 in Snow Light Snow
4:56 PM 33.1 °F 23.4 °F 30.0 °F 89% 29.81 in 3.0 mi West 13.8 mph - 0.00 in Snow Light Snow
5:16 PM 33.8 °F 23.9 °F 30.2 °F 87% 29.77 in 1.8 mi West 15.0 mph - 0.00 in Snow Light Snow
5:56 PM 33.1 °F 26.1 °F 30.0 °F 89% 29.77 in 2.0 mi West 8.1 mph - 0.02 in Snow Light Snow
6:56 PM 33.1 °F 24.4 °F 30.0 °F 89% 29.74 in 2.0 mi NNW 11.5 mph - 0.02 in Snow Light Snow
7:08 PM 33.8 °F 25.8 °F 30.2 °F 87% 29.72 in 2.0 mi North 10.4 mph - 0.00 in Snow Light Snow
7:43 PM 32.0 °F 22.1 °F 28.4 °F 87% 29.70 in 3.0 mi NNW 13.8 mph - 0.00 in Snow Light Snow
7:56 PM 32.0 °F 23.0 °F 28.9 °F 88% 29.72 in 2.5 mi NW 11.5 mph - 0.00 in Snow Light Snow
8:04 PM 32.0 °F 22.1 °F 28.4 °F 87% 29.69 in 3.0 mi NNW 13.8 mph 20.7 mph 0.00 in Snow Light Snow
8:14 PM 32.0 °F 22.5 °F 28.4 °F 87% 29.69 in 7.0 mi NW 12.7 mph - 0.00 in Snow Light Snow
8:41 PM 32.0 °F 25.6 °F 28.4 °F 87% 29.67 in 4.0 mi NW 6.9 mph - 0.00 in Snow Light Snow
8:56 PM 32.0 °F 25.6 °F 28.9 °F 88% 29.68 in 5.0 mi NW 6.9 mph - 0.00 in Snow Light Snow
8:59 PM 32.0 °F 24.8 °F 28.4 °F 87% 29.66 in 4.0 mi NW 8.1 mph - 0.00 in Snow Light Snow
9:07 PM 32.0 °F 23.0 °F 28.4 °F 87% 29.66 in 2.5 mi NNW 11.5 mph - 0.00 in Snow Light Snow
9:17 PM 32.0 °F 23.0 °F 28.4 °F 87% 29.65 in 2.5 mi NNW 11.5 mph 17.3 mph 0.01 in Snow Light Snow
9:44 PM 32.0 °F 21.2 °F 28.4 °F 87% 29.64 in 5.0 mi NNW 16.1 mph 23.0 mph 0.01 in Snow Light Snow
10:07 PM 32.0 °F 23.0 °F 28.4 °F 87% 29.63 in 4.0 mi NNW 11.5 mph 21.9 mph 0.00 in Snow Light Snow
10:11 PM 32.0 °F 22.1 °F 28.4 °F 87% 29.63 in 5.0 mi NW 13.8 mph - 0.00 in Snow Light Snow
10:15 PM 32.0 °F 20.5 °F 28.4 °F 87% 29.62 in 3.0 mi NNW 18.4 mph - 0.00 in Snow Light Snow
10:20 PM 32.0 °F 27.5 °F 28.4 °F 87% 29.62 in 2.0 mi Variable 4.6 mph 20.7 mph 0.00 in Snow Light Snow
10:32 PM 32.0 °F 24.2 °F 28.4 °F 87% 29.62 in 1.8 mi NE 9.2 mph - 0.01 in Snow Light Snow
10:38 PM 32.0 °F 21.6 °F 28.4 °F 87% 29.62 in 3.0 mi NE 15.0 mph 20.7 mph 0.01 in Snow Light Snow
10:56 PM 30.9 °F 20.2 °F 28.0 °F 89% 29.63 in 3.0 mi NE 15.0 mph - 0.01 in Snow Light Snow
11:05 PM 30.2 °F 20.2 °F 26.6 °F 86% 29.62 in 2.5 mi NNE 12.7 mph - 0.00 in Snow Light Snow
11:40 PM 30.2 °F 20.2 °F 26.6 °F 86% 29.62 in 1.8 mi NE 12.7 mph - 0.00 in Snow Light Snow
11:44 PM 30.2 °F 20.2 °F 26.6 °F 86% 29.61 in 2.0 mi NE 12.7 mph - 0.00 in Snow Light Snow
11:49 PM 30.2 °F 20.2 °F 26.6 °F 86% 29.61 in 3.0 mi NE 12.7 mph - 0.00 in Snow Light Snow
11:56 PM 30.9 °F 19.4 °F 27.0 °F 85% 29.63 in 2.0 mi NE 17.3 mph - 0.00 in Snow Light Snow
11:59 PM 30.2 °F 20.2 °F 26.6 °F 86% 29.62 in 1.8 mi NNE 12.7 mph - 0.00 in Snow Light Snow